sat.trackr.live / text

‹ back to catalog

STARLINK-34102

NORAD 63806 · 2025-092C

PAYLOAD ACTIVE UNKNOWN

§ Identity

Operator
Country
US
Launch date
2025-05-04
Launch site
AFETR
Launch vehicle
Mass (kg)
RCS (m²)

Purposes: comms

External: N2YO · Heavens-Above · Gunter

§ Orbital elements

Epoch: 2026-09-20T22:51:42.649344Z

Period
94.27 min
Inclination
43.0014°
Eccentricity
0.0001216
Mean motion
15.27605239 rev/d
Perigee alt
482.1 km
Apogee alt
483.8 km
Semi-major
6,861.1 km
B*
4.3426e-4
RAAN
150.1460°
Arg perigee
261.2475°
Mean anomaly
98.8239°
Rev number
7,852

§ Raw data

STARLINK-341021 63806U 25092C   26263.95257696  .00011716  00000+0  43426-3 0  99962 63806  43.0014 150.1460 0001216 261.2475  98.8239 15.27605239 78522

JSON: /api/v1/satellites/63806 · /tle

For live sub-satellite position, see the globe view (requires WebGL).

§ Visibility from observer

Set your observer location to see the next 7 days of passes ≥ 10°. The values pass through the URL so the page stays shareable.

No JS? Fill the form by hand. The geolocation button needs JavaScript.